| time (UTC) | temp F | wind direction | speed knots | gust knots | rain 1hr in | rain 24hr in | rain mn in | humidity % | barometer mb |
| 20260508025019 | 55 | 338 | 3.5 | 6.1 | 0.00 | 0.04 | 0.00 | 80 | 1015.9 |
| 20260508024018 | 55 | 346 | 3.5 | 5.2 | 0.00 | 0.04 | 0.00 | 80 | 1015.9 |
| 20260508023019 | 54 | 325 | 3.5 | 6.1 | 0.00 | 0.04 | 0.00 | 81 | 1016.0 |
| 20260508022018 | 54 | 332 | 3.5 | 6.1 | 0.00 | 0.04 | 0.00 | 81 | 1016.0 |
| 20260508021019 | 55 | 342 | 2.6 | 5.2 | 0.00 | 0.04 | 0.00 | 79 | 1016.0 |
| 20260508020019 | 55 | 322 | 3.5 | 6.1 | 0.00 | 0.04 | 0.00 | 79 | 1016.1 |
| 20260508015018 | 54 | 327 | 3.5 | 7.0 | 0.00 | 0.04 | 0.00 | 81 | 1015.9 |
| 20260508014019 | 54 | 309 | 2.6 | 5.2 | 0.00 | 0.04 | 0.00 | 81 | 1015.9 |
| 20260508013019 | 54 | 325 | 3.5 | 5.2 | 0.00 | 0.04 | 0.00 | 80 | 1016.0 |
| 20260508012019 | 54 | 336 | 2.6 | 5.2 | 0.00 | 0.04 | 0.00 | 80 | 1016.1 |
| 20260508011019 | 54 | 328 | 2.6 | 5.2 | 0.00 | 0.04 | 0.00 | 80 | 1016.2 |
| 20260508010019 | 54 | 306 | 2.6 | 4.3 | 0.00 | 0.04 | 0.00 | 80 | 1016.3 |
| 20260508005019 | 54 | 343 | 3.5 | 6.1 | 0.00 | 0.04 | 0.00 | 80 | 1016.3 |
| 20260508004018 | 54 | 330 | 3.5 | 5.2 | 0.00 | 0.04 | 0.00 | 80 | 1016.4 |
| 20260508003019 | 54 | 269 | 1.7 | 3.5 | 0.00 | 0.04 | 0.00 | 80 | 1016.4 |
| 20260508002019 | 54 | 322 | 3.5 | 5.2 | 0.00 | 0.04 | 0.00 | 80 | 1016.5 |
| 20260508001018 | 54 | 331 | 3.5 | 6.1 | 0.00 | 0.04 | 0.00 | 79 | 1016.6 |
| 20260508000019 | 54 | 322 | 3.5 | 7.8 | 0.00 | 0.04 | 0.00 | 80 | 1016.7 |
| 20260507235018 | 54 | 294 | 3.5 | 7.0 | 0.00 | 0.04 | 0.00 | 79 | 1016.7 |
| 20260507234019 | 55 | 320 | 4.3 | 7.8 | 0.00 | 0.04 | 0.00 | 79 | 1016.8 |
| 20260507233019 | 55 | 333 | 3.5 | 7.0 | 0.00 | 0.04 | 0.00 | 79 | 1016.8 |
| 20260507232019 | 55 | 306 | 3.5 | 6.1 | 0.00 | 0.04 | 0.00 | 79 | 1016.8 |
| 20260507231019 | 55 | 326 | 3.5 | 6.1 | 0.00 | 0.04 | 0.00 | 79 | 1016.9 |
| 20260507230018 | 55 | 312 | 3.5 | 7.8 | 0.00 | 0.04 | 0.00 | 78 | 1016.9 |
| 20260507225019 | 55 | 329 | 3.5 | 6.1 | 0.00 | 0.04 | 0.00 | 78 | 1016.9 |
| 20260507224018 | 56 | 327 | 4.3 | 7.0 | 0.00 | 0.04 | 0.00 | 78 | 1016.9 |
| 20260507223019 | 56 | 337 | 4.3 | 7.0 | 0.00 | 0.04 | 0.00 | 77 | 1016.9 |
| 20260507222019 | 56 | 316 | 4.3 | 7.0 | 0.00 | 0.04 | 0.00 | 78 | 1017.1 |
| 20260507221019 | 56 | 315 | 2.6 | 6.1 | 0.00 | 0.04 | 0.00 | 77 | 1017.1 |
| 20260507220019 | 56 | 319 | 3.5 | 6.1 | 0.00 | 0.04 | 0.00 | 77 | 1017.2 |
| 20260507215019 | 56 | 325 | 3.5 | 6.1 | 0.00 | 0.04 | 0.00 | 76 | 1017.2 |
| 20260507214019 | 56 | 344 | 3.5 | 7.0 | 0.00 | 0.04 | 0.00 | 76 | 1017.2 |
| 20260507213019 | 56 | 295 | 3.5 | 7.0 | 0.00 | 0.04 | 0.00 | 76 | 1017.2 |
| 20260507212019 | 57 | 345 | 4.3 | 7.8 | 0.00 | 0.04 | 0.00 | 76 | 1017.2 |
| 20260507211018 | 57 | 346 | 3.5 | 6.1 | 0.00 | 0.04 | 0.00 | 75 | 1017.2 |
| 20260507210019 | 57 | 347 | 4.3 | 7.8 | 0.00 | 0.04 | 0.00 | 76 | 1017.3 |
| 20260507205019 | 57 | 326 | 4.3 | 7.8 | 0.00 | 0.04 | 0.04 | 76 | 1017.3 |
| 20260507204019 | 57 | 328 | 2.6 | 6.1 | 0.00 | 0.04 | 0.04 | 75 | 1017.2 |
| 20260507203018 | 57 | 336 | 4.3 | 7.8 | 0.00 | 0.04 | 0.04 | 75 | 1017.2 |
| 20260507202019 | 57 | 330 | 3.5 | 6.1 | 0.00 | 0.04 | 0.04 | 75 | 1017.3 |
| 20260507201019 | 58 | 326 | 3.5 | 6.1 | 0.00 | 0.04 | 0.04 | 75 | 1017.3 |
| 20260507200019 | 58 | 341 | 4.3 | 6.1 | 0.00 | 0.04 | 0.04 | 75 | 1017.3 |
| 20260507195019 | 58 | 344 | 3.5 | 7.0 | 0.00 | 0.04 | 0.04 | 74 | 1017.2 |
| 20260507194019 | 59 | 343 | 2.6 | 6.1 | 0.00 | 0.04 | 0.04 | 73 | 1017.2 |
| 20260507193019 | 59 | 303 | 1.7 | 4.3 | 0.00 | 0.04 | 0.04 | 72 | 1017.2 |
| 20260507192019 | 59 | 318 | 2.6 | 5.2 | 0.00 | 0.04 | 0.04 | 72 | 1017.2 |
| 20260507191019 | 60 | 318 | 1.7 | 5.2 | 0.00 | 0.04 | 0.04 | 72 | 1017.1 |
| 20260507190019 | 60 | 338 | 1.7 | 3.5 | 0.00 | 0.04 | 0.04 | 72 | 1017.0 |
| 20260507185019 | 60 | 304 | 2.6 | 5.2 | 0.00 | 0.04 | 0.04 | 72 | 1016.8 |
| 20260507184019 | 60 | 342 | 2.6 | 4.3 | 0.00 | 0.04 | 0.04 | 71 | 1016.9 |
| 20260507183019 | 60 | 308 | 2.6 | 5.2 | 0.00 | 0.04 | 0.04 | 71 | 1016.9 |
| 20260507182019 | 60 | 309 | 1.7 | 3.5 | 0.00 | 0.04 | 0.04 | 71 | 1016.8 |
| 20260507181019 | 60 | 289 | 1.7 | 3.5 | 0.00 | 0.04 | 0.04 | 71 | 1016.8 |
| 20260507180019 | 61 | 310 | 0.9 | 2.6 | 0.00 | 0.04 | 0.04 | 71 | 1016.5 |
| 20260507175019 | 62 | 348 | 0.9 | 3.5 | 0.00 | 0.04 | 0.04 | 69 | 1016.6 |
| 20260507174019 | 62 | 291 | 0.9 | 1.7 | 0.00 | 0.04 | 0.04 | 69 | 1016.6 |
| 20260507173018 | 63 | 304 | 0.9 | 2.6 | 0.00 | 0.04 | 0.04 | 69 | 1016.7 |
| 20260507172019 | 63 | 302 | 0.9 | 1.7 | 0.00 | 0.04 | 0.04 | 68 | 1016.5 |
| 20260507171019 | 63 | 232 | 0.9 | 0.9 | 0.00 | 0.04 | 0.04 | 67 | 1016.7 |
| 20260507170019 | 64 | 201 | 0.9 | 1.7 | 0.00 | 0.04 | 0.04 | 67 | 1016.9 |
| 20260507165019 | 64 | 216 | 0.9 | 1.7 | 0.00 | 0.04 | 0.04 | 67 | 1016.7 |
| 20260507164019 | 64 | 239 | 0.0 | 0.9 | 0.00 | 0.04 | 0.04 | 68 | 1016.8 |
| 20260507163019 | 65 | 191 | 0.9 | 1.7 | 0.00 | 0.04 | 0.04 | 68 | 1016.6 |
| 20260507162019 | 66 | 240 | 0.0 | 0.0 | 0.00 | 0.04 | 0.04 | 68 | 1016.9 |
| 20260507161019 | 66 | 233 | 0.0 | 0.9 | 0.00 | 0.04 | 0.04 | 69 | 1016.9 |
| 20260507160019 | 68 | 200 | 0.0 | 2.6 | 0.00 | 0.04 | 0.04 | 69 | 1017.0 |
| 20260507155019 | 69 | 213 | 0.9 | 1.7 | 0.00 | 0.04 | 0.04 | 68 | 1017.0 |
| 20260507154018 | 70 | 211 | 0.9 | 2.6 | 0.00 | 0.04 | 0.04 | 68 | 1017.1 |
| 20260507153018 | 69 | 210 | 0.9 | 2.6 | 0.00 | 0.04 | 0.04 | 69 | 1017.1 |
| 20260507152019 | 71 | 213 | 0.9 | 2.6 | 0.00 | 0.04 | 0.04 | 66 | 1017.3 |
| 20260507151019 | 68 | 214 | 1.7 | 2.6 | 0.00 | 0.04 | 0.04 | 70 | 1017.2 |
| 20260507150019 | 69 | 251 | 0.9 | 0.9 | 0.00 | 0.04 | 0.04 | 70 | 1017.2 |
| 20260507145019 | 70 | 256 | 0.9 | 1.7 | 0.00 | 0.04 | 0.04 | 71 | 1016.9 |
| 20260507144019 | 70 | 228 | 0.9 | 1.7 | 0.00 | 0.04 | 0.04 | 75 | 1017.3 |
| 20260507143019 | 71 | 208 | 1.7 | 2.6 | 0.00 | 0.04 | 0.04 | 80 | 1017.4 |
| 20260507142019 | 77 | 214 | 0.9 | 1.7 | 0.00 | 0.04 | 0.04 | 68 | 1017.5 |
| 20260507141019 | 76 | 63 | 0.9 | 1.7 | 0.00 | 0.04 | 0.04 | 65 | 1017.5 |
| 20260507140019 | 71 | 257 | 0.9 | 1.7 | 0.00 | 0.04 | 0.04 | 67 | 1017.6 |
| 20260507135019 | 70 | 259 | 0.9 | 1.7 | 0.00 | 0.04 | 0.04 | 69 | 1017.5 |
| 20260507134018 | 68 | 213 | 0.9 | 2.6 | 0.00 | 0.04 | 0.04 | 72 | 1017.6 |
| 20260507133019 | 69 | 206 | 0.9 | 1.7 | 0.00 | 0.04 | 0.04 | 70 | 1017.6 |
| 20260507132019 | 70 | 275 | 0.9 | 2.6 | 0.00 | 0.04 | 0.04 | 70 | 1017.7 |
| 20260507131019 | 70 | 206 | 0.9 | 2.6 | 0.00 | 0.04 | 0.04 | 68 | 1017.7 |
| 20260507130018 | 70 | 281 | 0.9 | 1.7 | 0.00 | 0.04 | 0.04 | 70 | 1017.7 |
| 20260507125019 | 69 | 204 | 1.7 | 3.5 | 0.00 | 0.04 | 0.04 | 70 | 1017.7 |
| 20260507124019 | 68 | 205 | 0.9 | 3.5 | 0.00 | 0.04 | 0.04 | 71 | 1017.8 |
| 20260507123019 | 68 | 212 | 0.9 | 2.6 | 0.00 | 0.04 | 0.04 | 69 | 1018.0 |
| 20260507122019 | 66 | 195 | 2.6 | 5.2 | 0.00 | 0.04 | 0.04 | 73 | 1018.2 |
| 20260507121019 | 65 | 205 | 1.7 | 4.3 | 0.00 | 0.04 | 0.04 | 73 | 1018.1 |
| 20260507120019 | 64 | 196 | 1.7 | 3.5 | 0.00 | 0.04 | 0.04 | 74 | 1018.0 |
| 20260507115019 | 65 | 201 | 1.7 | 3.5 | 0.00 | 0.04 | 0.04 | 74 | 1018.1 |
| 20260507114018 | 67 | 214 | 0.9 | 3.5 | 0.00 | 0.04 | 0.04 | 70 | 1018.2 |
| 20260507113019 | 66 | 323 | 2.6 | 6.1 | 0.00 | 0.04 | 0.04 | 70 | 1018.0 |
| 20260507112019 | 65 | 322 | 2.6 | 5.2 | 0.00 | 0.04 | 0.04 | 70 | 1018.1 |
| 20260507111019 | 63 | 338 | 4.3 | 7.0 | 0.00 | 0.04 | 0.04 | 72 | 1018.4 |
| 20260507110018 | 62 | 317 | 4.3 | 7.8 | 0.01 | 0.04 | 0.04 | 72 | 1018.4 |
| 20260507105018 | 61 | 332 | 4.3 | 7.8 | 0.01 | 0.04 | 0.04 | 73 | 1018.4 |
| 20260507104018 | 60 | 301 | 5.2 | 10.4 | 0.02 | 0.04 | 0.04 | 73 | 1018.4 |
| 20260507103019 | 60 | 313 | 6.1 | 10.4 | 0.02 | 0.04 | 0.04 | 73 | 1018.4 |
| 20260507102019 | 60 | 303 | 6.1 | 8.7 | 0.02 | 0.04 | 0.04 | 73 | 1018.6 |
| 20260507101019 | 60 | 266 | 5.2 | 9.6 | 0.02 | 0.04 | 0.04 | 72 | 1018.7 |
| 20260507100019 | 60 | 272 | 3.5 | 7.8 | 0.02 | 0.03 | 0.03 | 72 | 1018.6 |
| 20260507095019 | 60 | 305 | 1.7 | 6.1 | 0.02 | 0.03 | 0.03 | 70 | 1018.6 |
| 20260507094018 | 60 | 318 | 0.9 | 5.2 | 0.01 | 0.02 | 0.02 | 70 | 1018.5 |
| 20260507093019 | 59 | 279 | 2.6 | 5.2 | 0.02 | 0.02 | 0.02 | 71 | 1018.4 |
| 20260507092018 | 59 | 309 | 6.1 | 11.3 | 0.02 | 0.02 | 0.02 | 71 | 1018.2 |
| 20260507091019 | 59 | 305 | 6.1 | 8.7 | 0.02 | 0.02 | 0.02 | 70 | 1018.1 |
| 20260507090019 | 60 | 314 | 6.1 | 10.4 | 0.01 | 0.01 | 0.01 | 69 | 1018.1 |
| 20260507085019 | 60 | 282 | 5.2 | 7.8 | 0.01 | 0.01 | 0.01 | 67 | 1018.1 |
| 20260507084019 | 60 | 285 | 4.3 | 9.6 | 0.01 | 0.01 | 0.01 | 67 | 1018.0 |
| 20260507083019 | 61 | 269 | 4.3 | 10.4 | 0.00 | 0.00 | 0.00 | 66 | 1017.8 |
| 20260507082019 | 64 | 263 | 2.6 | 6.1 | 0.00 | 0.00 | 0.00 | 63 | 1017.7 |
| 20260507081019 | 65 | 239 | 1.7 | 2.6 | 0.00 | 0.00 | 0.00 | 62 | 1017.5 |
| 20260507080019 | 68 | 200 | 1.7 | 3.5 | 0.00 | 0.00 | 0.00 | 57 | 1017.3 |
| 20260507075019 | 67 | 302 | 0.9 | 3.5 | 0.00 | 0.00 | 0.00 | 58 | 1017.1 |
| 20260507074019 | 67 | 338 | 3.5 | 7.0 | 0.00 | 0.00 | 0.00 | 58 | 1017.0 |
| 20260507073019 | 68 | 312 | 1.7 | 5.2 | 0.00 | 0.00 | 0.00 | 56 | 1016.9 |
| 20260507072018 | 67 | 351 | 2.6 | 5.2 | 0.00 | 0.00 | 0.00 | 57 | 1016.9 |
| 20260507071019 | 67 | 300 | 0.9 | 2.6 | 0.00 | 0.00 | 0.00 | 57 | 1016.9 |
| 20260507070019 | 65 | 277 | 1.7 | 2.6 | 0.00 | 0.00 | 0.00 | 60 | 1016.8 |
| 20260507065018 | 64 | 347 | 2.6 | 4.3 | 0.00 | 0.00 | 0.00 | 60 | 1016.7 |
| 20260507064019 | 64 | 332 | 0.9 | 3.5 | 0.00 | 0.00 | 0.00 | 59 | 1016.7 |
| 20260507063018 | 62 | 250 | 0.0 | 0.9 | 0.00 | 0.00 | 0.00 | 60 | 1016.7 |
| 20260507062019 | 62 | 321 | 1.7 | 2.6 | 0.00 | 0.00 | 0.00 | 61 | 1016.5 |
| 20260507061018 | 61 | 310 | 2.6 | 5.2 | 0.00 | 0.00 | 0.00 | 62 | 1016.5 |
| 20260507060018 | 61 | 305 | 2.6 | 4.3 | 0.00 | 0.00 | 0.00 | 61 | 1016.6 |
| 20260507055019 | 61 | 334 | 2.6 | 4.3 | 0.00 | 0.00 | 0.00 | 60 | 1016.7 |
| 20260507054018 | 61 | 320 | 2.6 | 4.3 | 0.00 | 0.00 | 0.00 | 60 | 1016.9 |
| 20260507053018 | 62 | 338 | 2.6 | 4.3 | 0.00 | 0.00 | 0.00 | 58 | 1016.6 |
| 20260507052019 | 62 | 323 | 2.6 | 5.2 | 0.00 | 0.00 | 0.00 | 58 | 1016.5 |
| 20260507051019 | 61 | 309 | 1.7 | 4.3 | 0.00 | 0.00 | 0.00 | 58 | 1016.4 |
| 20260507050019 | 59 | 302 | 2.6 | 4.3 | 0.00 | 0.00 | 0.00 | 59 | 1016.3 |
| 20260507045019 | 58 | 323 | 2.6 | 5.2 | 0.00 | 0.00 | 0.00 | 61 | 1016.2 |
| 20260507044019 | 57 | 298 | 3.5 | 6.1 | 0.00 | 0.00 | 0.00 | 62 | 1016.1 |
| 20260507043018 | 57 | 323 | 3.5 | 6.1 | 0.00 | 0.00 | 0.00 | 61 | 1016.0 |
| 20260507042019 | 57 | 332 | 4.3 | 7.8 | 0.00 | 0.00 | 0.00 | 62 | 1015.9 |
| 20260507041019 | 56 | 312 | 2.6 | 4.3 | 0.00 | 0.00 | 0.00 | 61 | 1015.8 |
| 20260507040019 | 56 | 320 | 4.3 | 7.8 | 0.00 | 0.00 | 0.00 | 62 | 1015.8 |
| 20260507035018 | 56 | 330 | 3.5 | 6.1 | 0.00 | 0.00 | 0.00 | 62 | 1015.7 |
| 20260507034019 | 56 | 331 | 4.3 | 7.8 | 0.00 | 0.00 | 0.00 | 62 | 1015.7 |
| 20260507033018 | 56 | 355 | 4.3 | 7.8 | 0.00 | 0.00 | 0.00 | 62 | 1015.7 |
| 20260507032019 | 55 | 354 | 4.3 | 7.8 | 0.00 | 0.00 | 0.00 | 62 | 1015.6 |
| 20260507031019 | 55 | 314 | 3.5 | 6.1 | 0.00 | 0.00 | 0.00 | 62 | 1015.6 |
| 20260507030019 | 55 | 345 | 4.3 | 7.8 | 0.00 | 0.00 | 0.00 | 62 | 1015.5 |